Regional Weather Roundup
Issued by NWS

Home | Current Version | Previous Version | Graphics & Text | Print | Product List | Glossary On
Versions: 1 2 3 4 5 6 7 8 9 10 11 12 13 14 15 16 17 18 19 20 21 22 23 24 25 26 27 28 29 30 31 32 33 34 35 36 37 38 39 40 41 42 43 44 45 46 47 48 49 50
000
ASUS44 KFWD 040415
RWRTX
NORTH TEXAS HOURLY WEATHER ROUNDUP
NATIONAL WEATHER SERVICE FORT WORTH TX
1100 PM CDT MON AUG 03 2015

NOTE: "FAIR" INDICATES FEW OR NO CLOUDS BELOW 12,000 FEET WITH NO
SIGNIFICANT WEATHER AND/OR OBSTRUCTIONS TO VISIBILITY.

TXZ118-119-040500-
DALLAS/FORT WORTH METROPLEX

CITY           SKY/WX    TMP DP  RH WIND       PRES   REMARKS
DFW AIRPORT    PTCLDY    87  60  40 SE7       29.89R
DALLAS LOVE    PTCLDY    90  62  39 SE9       29.90R HX  90
FTW MEACHAM    CLEAR     90  60  36 SE9       29.89R
DAL-EXECUTIVE  CLEAR     86  61  42 SE7       29.90R
FTW-ALLIANCE   PTCLDY    86  60  41 SE6       29.90R
FTW-NAS-JRB    PTCLDY    90  59  35 SE8       29.90R
FTW-SPINKS     CLEAR     83  61  46 SE5       29.92R
ARLINGTON      CLEAR     86  61  42 SE3       29.90R
GRAND PRAIRIE  CLEAR     87  63  44 SE3       29.91R
ADDISON        PTCLDY    90  63  40 SE7       29.92R HX  91
MESQUITE       CLEAR     84  63  48 CALM      29.90S
LANCASTER      CLEAR     83  59  43 CALM      29.91R
$$

TXZ091>094-102>105-117-120-121-131>134-040500-
NORTH CENTRAL TEXAS

CITY           SKY/WX    TMP DP  RH WIND       PRES   REMARKS
SHRMAN/DENISON CLOUDY    89  65  44 SE9       29.91S HX  90
GAINESVILLE    MOCLDY    82  63  52 SE6       29.92S
BOWIE          CLOUDY    82  62  49 SE5       29.91S
DECATUR        CLEAR     85  59  41 SE6       29.92S
DENTON         PTCLDY    86  62  44 SE7       29.90R
MCKINNEY       PTCLDY    86  64  47 SE7       29.90R
GREENVILLE     PTCLDY    82  63  51 CALM      29.91S
ROCKWALL       PTCLDY    87  63  44 SE6       29.90R
TERRELL        CLEAR     85  64  49 SE5       29.91R
WAXAHACHIE     CLEAR     84  63  49 CALM      29.92R
CLEBURNE         N/A     86  61  42 SE8       29.93R
GRANBURY       CLEAR     87  62  42 SE5       29.91R
$$

TXZ083>090-098>101-113>116-127>130-139>142-154-155-040500-
WESTERN NORTH TEXAS

CITY           SKY/WX    TMP DP  RH WIND       PRES   REMARKS
WICHITA FALLS  PTCLDY    81  69  67 E6        29.90R
WF-KICKAPOO    PTCLDY    83  69  62 E6        29.91S
VERNON         MOCLDY    82  67  61 E6        29.91S
ABILENE        CLEAR     84  62  47 SE10      29.94R
ABILENE-DYESS  PTCLDY    86  64  48 SE12      29.92R
BRECKENRIDGE   PTCLDY    85  62  45 SE6       29.92R
GRAHAM         CLEAR     82  67  60 SE3       29.90R
MINERAL WELLS  CLEAR     81  64  56 SE6       29.89R
STEPHENVILLE   CLEAR     83  59  44 S3        29.96R
COMANCHE       CLEAR     83  60  45 S8        29.94R
COLEMAN        CLEAR     84  60  43 SE8       29.95R
BRADY          CLEAR     84  57  39 SE5       29.95R
$$

TXZ143>147-156>162-174-175-040500-
CENTRAL TEXAS

CITY           SKY/WX    TMP DP  RH WIND       PRES   REMARKS
WACO           CLEAR     86  62  44 SE7       29.90R
WACO-TSTC      CLEAR     82  63  51 SE6       29.90R
HILLSBORO      CLEAR     85  59  40 E8        29.91R
CORSICANA      CLEAR     83  65  54 SE5       29.91R
MEXIA          CLEAR     81  65  57 E9        29.90R
HEARNE         CLEAR     82  70  66 SE6       29.91R
CAMERON        CLEAR     85  66  53 S9        29.90R
TEMPLE         CLEAR     82  61  47 SE6       29.91R
KILLEEN        CLEAR     83  61  46 S5        29.91R
KILLEEN-SKYLRK   N/A    N/A N/A N/A MISG        N/A
FORT HOOD      CLEAR     84  62  47 SE5       29.91R
GATESVILLE     CLEAR     84  63  48 CALM      29.94R
HAMILTON       CLEAR     83  59  42 MISG      29.95R
$$

TXZ095>097-106>112-122>126-135>138-148>153-164>167-040500-
EAST TEXAS

CITY           SKY/WX    TMP DP  RH WIND       PRES   REMARKS
PARIS          PTCLDY    82  63  51 SE7       29.92R
SULPHUR SPRNGS PTCLDY    83  64  52 E3        29.94R
MOUNT PLEASANT CLEAR     82  63  52 CALM      29.92S
GILMER         CLEAR     82  64  54 CALM      29.91R
MINEOLA        CLEAR     79  70  73 CALM      29.92R
TYLER          CLEAR     83  64  52 S3        29.91R
LONGVIEW       CLEAR     82  67  60 CALM      29.90R
MARSHALL       CLEAR     82  68  63 CALM      29.93R
ATHENS         CLEAR     77  66  69 CALM      29.90R
PALESTINE      CLEAR     78  66  67 CALM      29.92R
JACKSONVILLE   CLEAR     86  61  42 CALM      29.94R
HENDERSON      CLEAR     76  67  73 CALM      29.92R
CENTER         FAIR      79  70  73 CALM      29.90R
NACOGDOCHES    CLEAR     75  66  73 CALM      29.90R
LUFKIN         CLEAR     77  69  76 CALM      29.89R
$$

SUPPLEMENTAL OBSERVATIONS (CENTRAL)

CITY           SKY/WX    TMP DP  RH WIND       PRES   REMARKS
LAKE TEXOMA      N/A     86  72  62 SE1         N/A  HX  92
CADDO GRASSLND   N/A     82  63  51 SE3         N/A
PAT MAYSE LAKE   N/A     86  61  42 E7          N/A
GREENVILLE       N/A     84  63  48 SE2         N/A
CEDAR HILL       N/A     84  59  42 SE5         N/A
LAKE LIMESTONE   N/A     81  64  57 CALM        N/A
MCGREGOR         N/A     84  61  45 S7          N/A
$$

SUPPLEMENTAL OBSERVATIONS (WEST)

CITY           SKY/WX    TMP DP  RH WIND       PRES   REMARKS
MILLERS CREEK    N/A     82  66  57 SE8         N/A
LBJ GRASSLAND    N/A    N/A N/A N/A SE8         N/A
COMANCHE         N/A     82  55  39 S9          N/A
HAMBY            N/A     82  61  47 SE6         N/A
IVIE RESERVOIR   N/A     86  55  35 SE9         N/A
COLORADO BEND    N/A     84  57  39 S7          N/A
$$

SUPPLEMENTAL OBSERVATIONS (EAST)

CITY           SKY/WX    TMP DP  RH WIND       PRES   REMARKS
CLARKSVILLE      N/A     84  61  45 SE5         N/A
CADDO LAKE       N/A     73  70  88 CALM        N/A
GILMER           N/A     79  64  61 CALM        N/A
HENDERSON        N/A     77  63  61 CALM        N/A
N SABINE NF      N/A     77  70  78 MISG        N/A
S SABINE NF      N/A     75  68  78 CALM        N/A
$$

SUPPLEMENTAL OBSERVATIONS ARE A COLLECTION OF AUTOMATED INSTRUMENTS
THAT ARE MAINTAINED BY A VARIETY OF FEDERAL AND STATE AGENCIES.
CERTAIN ELEMENTS...SUCH AS HUMIDITY VALUES AND SUSTAINED WIND
SPEEDS...MAY BE APPROXIMATED.




USA.gov is the U.S. government's official web portal to all federal, state and local government web resources and services.